Temp
18 18 18 18 18 18 17 17 17 17 17 17 16 16 16 15 15 15 15 15 15 15 15 15 15 15 15 15 15 15 15 15 15 15 15 15 15 14 14 14 14 14 13 13 13 13 13 13 13 13 13 13 14 14 14 14 14 14 14 14 14 14 14 14 14 13 13 12 12
18 18 18 18 18 18 17 17 17 17 17 17 16 16 16 16 15 15 15 15 15 15 15 15 15 15 15 15 15 15 15 15 15 15 15 15 15 15 14 14 14 14 14 13 13 13 13 13 13 13 13 13 13 14 14 14 14 14 14 14 14 14 14 13 13 13 12 12 12
19 18 18 18 18 18 18 17 17 17 17 17 16 16 16 16 16 15 15 15 15 15 15 15 15 15 15 15 15 15 15 15 15 15 15 15 15 15 15 14 14 14 14 14 13 13 14 13 13 13 13 13 13 14 14 14 14 14 14 14 13 13 13 13 13 12 12 12 11
19 18 18 18 18 18 18 17 17 17 17 17 16 16 16 16 16 16 15 15 15 15 15 15 15 15 15 15 15 15 15 15 15 15 15 15 15 15 15 14 14 14 14 14 14 14 14 14 14 14 14 14 14 14 14 14 14 13 13 13 13 13 13 12 12 12 12 11 11
19 19 18 18 18 18 18 18 17 17 17 17 16 16 16 16 16 16 15 15 15 15 15 15 15 15 15 15 15 15 15 15 15 15 15 15 15 15 15 15 14 14 14 14 14 14 14 14 14 14 14 14 14 14 14 14 13 13 13 13 13 12 12 12 12 12 11 11 11
19 19 19 18 18 18 18 18 18 17 17 17 16 16 16 16 16 16 15 15 15 15 15 15 15 15 15 15 15 15 15 15 15 15 15 15 15 15 15 15 14 14 14 14 13 14 14 14 14 14 14 14 14 14 14 13 13 13 13 12 12 12 12 12 12 12 11 11 11
19 19 19 18 18 18 18 18 18 17 17 17 17 16 16 16 16 16 16 15 15 15 15 15 15 15 15 15 15 15 15 15 15 15 15 15 15 15 15 14 14 14 14 13 13 13 13 13 13 13 13 13 13 13 13 13 13 13 12 12 12 12 12 12 12 11 11 11 11
19 19 19 19 18 18 18 18 18 17 17 17 16 16 16 16 16 16 16 15 15 15 15 15 15 15 15 15 15 15 15 15 15 15 15 15 15 15 15 14 14 14 14 14 13 13 13 13 13 13 13 13 13 13 13 13 13 12 12 12 12 12 12 12 11 11 11 11 10
19 19 19 19 18 18 18 18 18 17 17 17 16 16 16 16 16 16 16 15 15 15 15 15 15 15 15 15 15 15 15 15 15 15 15 15 15 15 14 14 14 14 14 14 14 13 13 13 13 13 13 13 13 13 13 13 12 12 12 12 12 12 12 11 11 11 10 10 10
19 19 19 19 18 18 18 18 18 17 17 17 17 16 16 16 16 16 16 16 15 15 15 15 15 15 15 15 15 15 15 15 15 15 15 14 15 15 14 14 14 14 14 14 14 13 13 13 13 13 13 13 13 13 12 12 12 12 12 12 12 12 11 11 10 10 10 10 10
19 19 19 19 18 18 18 18 18 17 17 17 17 16 16 16 16 16 16 16 15 15 15 15 15 15 15 15 15 15 15 15 15 14 14 14 14 15 14 14 14 14 14 14 13 13 13 13 13 13 13 12 12 12 12 12 12 12 12 12 11 11 11 10 10 10 10 10 9
19 19 19 19 18 18 18 18 17 17 17 17 16 16 16 16 16 16 16 15 15 15 15 15 15 15 15 15 15 15 15 15 15 14 14 14 14 14 14 14 14 14 14 14 13 13 13 12 13 12 12 12 12 12 12 12 12 12 11 11 11 11 10 10 10 9 9 9 9
19 19 19 18 18 18 18 18 17 17 17 17 16 16 16 16 16 16 16 16 15 15 15 15 16 16 15 15 15 15 15 15 15 14 14 14 14 14 14 14 14 14 14 14 13 13 13 13 13 12 12 12 12 12 12 12 12 11 11 11 11 10 10 10 9 9 9 9 8
19 19 19 18 18 18 18 18 17 17 17 16 16 16 16 16 16 16 16 16 16 16 16 15 15 15 15 15 15 15 15 15 15 14 14 14 14 14 14 14 14 14 14 13 13 13 13 13 13 12 12 12 12 12 11 11 11 11 11 11 10 10 10 9 9 8 8 8 8
19 19 19 18 18 18 18 17 17 17 16 16 16 16 16 16 16 16 16 16 16 16 16 15 15 15 15 15 15 15 15 15 14 14 14 14 14 14 14 14 14 14 14 13 13 13 13 13 12 12 12 12 12 11 11 11 11 11 11 10 10 10 9 9 8 8 8 8 7
19 19 19 18 18 18 18 17 17 17 16 16 16 16 16 15 15 15 15 15 15 15 15 15 15 15 15 15 15 15 15 14 14 14 14 14 14 14 14 14 14 14 13 13 13 13 12 12 12 12 12 11 11 11 11 11 11 11 10 10 10 9 9 8 8 7 7 7 7
19 19 18 18 18 18 18 17 17 16 16 16 16 16 16 15 15 15 15 15 15 15 15 15 15 15 14 14 14 14 14 14 14 14 14 14 14 14 14 14 14 14 13 13 13 12 12 12 11 11 11 11 11 11 11 11 10 10 10 9 9 9 8 8 7 7 7 7 7
19 19 18 18 18 18 17 17 17 16 16 16 15 15 15 15 15 15 15 15 15 15 15 15 14 14 14 14 14 14 14 14 14 14 14 14 14 14 14 14 13 13 13 13 12 12 12 11 11 11 11 11 11 11 11 10 10 10 9 9 9 8 8 7 7 7 7 7 7
19 18 18 18 18 18 17 17 17 16 16 16 16 15 15 15 15 15 15 15 15 15 15 14 14 14 14 14 14 14 14 14 14 14 14 14 14 14 14 13 13 13 12 12 12 12 11 11 11 11 11 11 11 10 10 10 10 9 9 9 8 8 8 7 7 7 7 7 7
19 18 18 18 18 17 17 17 16 16 16 16 16 15 15 15 15 15 15 15 15 15 15 14 14 14 14 14 14 14 14 14 14 14 14 14 14 13 13 13 12 12 12 12 12 11 11 11 11 11 11 11 11 10 10 10 10 9 9 8 8 8 8 7 7 7 7 7 6
19 18 18 18 18 17 17 17 16 16 16 16 16 15 15 15 15 15 15 14 14 14 14 14 14 14 14 14 14 14 14 14 14 14 14 13 13 13 12 12 12 12 12 11 11 11 11 11 11 11 11 11 11 10 10 10 9 9 8 8 8 8 7 7 7 7 7 6 6
18 18 18 18 17 17 17 16 16 16 16 16 16 15 15 15 15 15 14 14 14 14 14 14 15 15 14 14 14 14 14 14 14 13 13 13 12 12 12 12 12 12 11 11 11 11 11 11 11 11 11 10 10 10 10 9 9 8 8 8 8 7 7 7 7 7 6 6 6
18 18 18 18 17 17 16 16 16 16 16 16 15 15 15 15 14 14 14 14 14 14 14 14 15 15 14 14 14 14 14 13 13 13 12 12 12 12 12 12 11 11 11 11 11 11 11 11 11 10 10 10 10 9 9 9 8 8 8 8 7 7 7 7 6 6 6 6 6
18 18 18 17 17 17 16 16 16 16 16 16 15 15 14 14 14 14 14 14 14 14 14 14 14 14 14 14 14 14 14 13 12 12 12 12 12 11 11 11 11 11 11 11 11 11 11 11 10 10 10 9 9 9 8 8 8 8 8 7 7 7 7 6 6 6 6 5 5
18 18 18 17 17 16 16 16 16 16 16 15 15 14 14 14 14 14 14 14 14 14 14 14 13 13 13 13 14 14 14 13 12 12 12 11 11 11 11 11 11 11 11 11 11 11 11 11 10 10 9 9 8 8 8 8 8 8 8 7 7 7 6 6 6 6 5 5 5
18 18 17 17 16 16 16 16 16 15 15 15 14 14 14 14 14 14 13 13 13 13 13 13 13 13 13 13 13 13 13 13 12 12 11 11 11 11 11 11 11 11 11 11 11 11 11 10 10 9 9 8 8 8 8 7 7 7 7 7 7 6 6 5 5 5 5 5 4
18 17 17 17 16 16 16 16 15 15 15 14 14 14 13 13 13 13 13 13 13 13 13 13 13 13 13 13 13 12 12 12 11 11 11 11 11 10 11 11 11 11 11 11 11 10 10 10 9 9 9 9 9 8 8 7 7 7 6 6 6 6 5 5 5 4 4 4 4
17 17 17 16 16 16 15 15 15 14 14 14 13 13 13 13 13 13 13 13 12 12 12 12 12 12 12 12 12 12 11 11 11 11 11 11 10 11 11 11 11 10 10 10 10 10 10 9 9 9 9 9 9 8 8 7 7 6 6 6 6 5 5 5 4 4 4 3 3
17 16 16 16 15 15 15 15 14 14 14 13 13 13 13 13 13 13 12 12 12 12 12 12 12 12 12 11 11 11 11 11 11 10 10 10 10 10 11 10 10 10 10 10 10 9 9 9 9 9 9 9 9 8 8 7 6 6 6 5 5 5 4 4 4 4 3 3 3
16 16 16 15 15 15 15 14 14 14 13 13 13 13 13 12 12 12 12 12 12 12 12 12 12 11 11 11 11 11 11 10 10 10 10 10 10 10 10 10 9 9 9 9 9 9 9 9 9 9 9 9 9 8 7 6 6 5 5 5 5 4 4 4 3 3 3 3 3
16 16 15 15 15 14 14 14 14 13 13 13 13 13 12 12 12 12 12 12 12 12 12 12 11 11 11 11 11 10 10 10 10 10 10 10 10 9 9 9 9 9 9 9 9 9 9 9 9 8 8 8 8 7 7 6 5 5 5 5 5 4 4 4 3 3 3 3 3
15 15 15 15 14 14 14 13 13 13 13 13 12 12 12 12 12 12 12 12 12 12 12 11 11 11 10 10 10 10 10 10 10 10 10 10 9 9 9 9 8 8 9 9 9 9 9 8 8 8 8 8 7 7 6 5 5 5 5 5 5 4 4 4 3 3 3 3 3
15 15 15 14 14 14 13 13 13 13 13 12 12 12 12 12 12 12 12 12 12 11 11 11 11 10 10 10 10 10 9 9 9 9 9 9 9 9 8 8 8 8 8 8 8 8 8 8 8 8 8 7 7 6 5 5 5 5 5 5 4 4 4 4 3 3 3 3 3
15 15 14 14 14 13 13 13 12 12 12 12 12 12 12 12 11 11 11 11 11 11 11 11 11 10 10 10 10 9 9 9 9 9 9 9 9 9 8 8 8 8 8 8 8 8 8 8 8 8 7 7 6 5 5 5 5 5 5 4 4 4 4 3 3 3 3 3 3
14 14 14 13 13 13 12 12 12 12 12 12 12 12 11 11 11 11 11 11 11 11 10 10 10 10 10 10 10 9 9 9 9 9 9 9 9 8 8 7 7 7 7 7 7 8 8 8 8 7 7 6 5 5 5 5 5 5 4 4 4 3 3 3 3 3 2 2 2
14 14 13 13 13 12 12 12 12 12 12 12 11 11 11 11 11 11 11 11 10 10 10 9 9 9 9 9 9 9 9 9 9 8 9 9 9 8 8 7 7 6 7 7 7 7 8 8 7 7 6 5 5 5 5 5 4 4 4 3 3 3 3 2 2 2 2 2 2
14 14 13 13 13 12 12 12 12 12 11 11 11 11 11 11 11 10 10 10 10 9 9 9 9 9 9 8 8 8 9 9 9 8 8 8 8 8 7 7 6 6 6 6 7 7 7 7 7 6 6 5 5 4 4 4 4 3 3 3 3 2 2 2 2 2 2 1 1
14 13 13 13 12 12 12 12 12 11 11 11 11 11 11 11 10 10 10 10 9 9 9 8 8 8 8 8 8 8 8 9 9 8 8 8 8 8 7 6 6 5 6 6 7 7 7 6 6 6 5 5 5 4 4 3 3 3 2 2 2 2 2 2 2 1 1 1 1
14 13 13 13 12 12 12 12 11 11 11 11 11 11 10 10 10 10 9 9 9 9 8 8 8 8 8 8 8 8 8 8 8 8 8 8 8 7 7 6 5 5 5 6 6 6 6 6 5 5 5 5 4 4 3 3 2 2 2 2 2 1 1 1 1 1 1 1 1
14 13 13 13 12 12 12 11 11 11 11 11 10 10 10 10 9 9 9 9 9 9 8 8 7 7 7 7 7 7 7 7 7 8 8 8 7 7 7 6 5 5 5 6 6 6 5 5 5 5 5 5 4 4 3 3 2 2 2 1 1 1 1 1 1 1 0 0 0
13 13 13 12 12 12 12 11 11 11 10 10 10 10 10 9 9 9 8 8 8 8 8 7 7 7 7 7 7 7 7 7 7 7 7 7 7 6 6 6 6 5 5 5 5 5 5 4 4 4 4 4 4 3 3 3 2 1 1 1 1 1 1 1 1 1 0 0 0
Height
733 735 736 737 738 740 741 742 743 744 746 746 748 749 750 751 752 754 755 756 757 759 760 761 763 764 766 767 768 770 771 772 773 775 776 777 778 779 780 781 782 783 784 785 786 787 789 790 791 792 793 793 794 795 795 796 796 797 797 797 797 798 799 799 800 800 801 801 802
731 733 734 736 737 738 740 741 742 743 744 745 746 747 749 750 751 752 754 755 756 758 759 761 762 763 765 766 767 768 770 771 772 774 775 776 777 778 779 780 781 782 783 784 785 786 788 789 790 791 792 792 793 794 794 795 796 796 796 796 796 797 798 798 799 800 800 801 802
730 731 733 734 736 737 738 739 740 741 742 744 745 746 748 749 750 751 753 754 756 757 758 760 761 762 764 765 766 767 769 770 771 773 774 775 776 777 779 780 781 781 782 783 784 785 786 788 789 790 791 791 792 793 793 794 794 795 795 795 796 796 797 798 799 799 800 801 801
728 730 731 732 733 734 735 736 738 740 741 742 744 746 747 748 749 751 752 753 755 756 757 759 760 761 763 764 765 766 768 769 771 772 773 775 776 777 778 779 780 781 781 782 783 784 785 786 788 788 789 790 791 791 791 792 793 794 794 795 795 796 796 797 798 799 799 800 801
726 728 729 730 731 732 734 735 737 738 740 741 743 745 746 747 748 750 751 752 754 755 756 757 759 761 762 763 764 766 767 769 770 771 773 774 775 776 777 778 779 780 781 781 782 783 784 785 786 786 787 788 789 789 790 791 792 792 793 794 795 795 796 796 797 798 798 799 800
724 726 727 728 730 731 733 735 736 737 739 741 742 743 744 746 747 748 750 751 752 754 755 757 758 760 761 762 764 765 766 768 769 771 772 773 774 775 776 777 778 779 780 780 781 782 783 784 785 785 786 787 788 789 789 790 791 792 793 794 794 795 795 796 796 797 798 799 799
722 724 726 727 729 731 732 734 735 736 738 739 741 741 743 744 746 747 748 750 751 753 755 756 757 759 760 761 763 764 765 767 768 770 771 772 773 775 776 776 777 778 779 780 781 781 782 783 784 784 785 786 787 788 789 790 790 791 792 793 794 794 795 795 796 797 797 798 799
721 723 724 726 727 729 731 732 734 736 737 738 739 740 741 743 745 746 748 749 751 752 753 755 756 758 759 760 761 763 764 766 767 769 770 771 773 774 775 776 776 777 778 779 780 781 781 782 783 783 785 786 787 787 788 789 790 791 792 792 793 793 794 795 796 796 797 798 798
720 721 723 725 726 728 730 731 733 734 735 736 737 739 741 742 744 746 747 748 750 751 752 754 755 757 758 759 761 762 763 765 766 768 769 771 772 773 774 775 776 776 777 778 779 780 781 781 782 783 784 785 786 786 787 788 789 790 791 791 792 792 793 794 795 796 797 797 798
718 720 721 723 725 727 729 730 731 733 734 735 736 738 740 741 743 744 746 747 749 751 752 753 755 756 757 758 760 761 762 764 766 767 769 770 771 772 773 774 775 776 777 778 778 779 780 780 781 782 783 784 785 785 786 787 789 789 790 791 791 792 793 794 795 796 796 797 798
716 718 720 722 724 726 727 729 731 732 733 735 736 737 739 741 742 744 745 747 748 750 751 752 754 755 756 757 759 760 762 763 765 766 768 769 770 771 772 773 774 775 776 777 777 778 778 779 781 781 782 783 784 785 786 787 788 789 789 790 791 792 793 794 795 796 796 797 797
714 716 718 720 722 724 726 728 730 731 732 734 735 736 738 740 741 743 745 746 747 749 750 751 753 754 756 757 758 760 761 763 764 766 767 768 770 771 771 772 773 774 775 776 776 777 777 779 780 781 782 782 784 785 786 786 787 788 789 790 791 792 793 794 795 796 796 796 797
713 715 717 719 721 723 725 727 728 730 731 733 734 735 737 739 740 742 744 745 746 748 749 751 752 753 755 756 757 759 761 762 764 765 766 768 769 770 771 772 773 774 774 775 776 776 777 778 779 780 781 782 783 784 785 786 787 788 789 790 791 792 793 794 795 795 796 796 796
712 714 716 718 720 722 724 726 727 729 730 731 733 734 736 738 740 741 743 744 746 747 749 750 752 753 754 756 757 759 760 762 763 765 766 767 768 769 770 771 772 773 774 774 775 776 777 778 779 780 781 782 783 784 785 786 786 787 788 790 791 792 793 794 794 795 795 796 796
711 713 715 717 719 721 722 724 726 727 729 730 731 733 736 737 739 741 742 744 745 746 748 750 751 752 754 755 757 758 760 761 763 764 765 766 767 768 770 771 771 772 773 774 775 776 777 778 779 780 781 782 783 784 785 786 786 788 789 790 791 791 792 793 794 795 795 795 796
710 711 714 716 717 719 721 723 725 726 727 729 731 733 735 736 738 740 741 743 745 746 747 749 751 752 754 755 756 758 760 761 762 763 765 766 767 768 769 770 771 772 773 774 775 776 777 778 779 780 781 782 783 784 785 786 787 788 789 790 791 791 792 793 794 794 795 795 796
708 710 712 714 716 717 719 721 723 725 726 728 730 732 734 736 737 739 741 742 744 746 747 749 750 751 753 755 756 758 759 761 762 763 764 765 766 767 769 770 771 772 773 773 774 776 777 778 779 780 781 782 783 784 785 786 787 788 789 790 791 791 792 793 794 795 795 796 796
706 708 710 712 713 715 717 719 721 723 725 727 729 731 733 735 736 738 740 741 743 745 746 748 750 751 752 754 756 757 759 760 761 762 764 765 766 767 768 770 771 771 772 773 774 775 776 777 779 780 781 782 783 784 785 786 787 788 789 790 791 791 792 793 794 795 795 796 796
704 706 708 710 711 714 716 718 720 721 723 726 729 731 732 734 736 737 739 741 742 744 746 747 749 751 752 754 756 757 758 760 761 762 763 764 766 767 768 769 770 771 772 773 774 775 776 777 778 780 781 782 783 785 785 786 787 788 789 790 791 792 793 794 794 795 795 796 796
702 704 706 708 710 712 714 716 718 720 723 726 728 730 731 733 735 736 738 740 742 744 745 746 748 750 752 754 755 756 758 759 761 762 763 764 766 767 768 769 770 771 772 773 774 775 776 777 779 780 781 782 783 784 785 786 787 788 789 790 791 792 793 794 794 795 795 795 795
701 703 705 707 709 711 713 715 717 720 722 725 727 729 731 732 734 736 738 739 741 743 745 746 748 750 751 753 755 756 758 759 761 761 763 764 765 766 767 769 770 771 772 773 774 775 776 777 779 780 781 782 783 784 785 786 787 788 789 790 791 792 793 794 794 794 795 795 795
700 702 704 707 709 711 713 715 717 720 722 724 726 728 730 732 734 736 737 739 741 742 744 746 747 749 751 752 754 756 757 759 760 761 763 764 765 766 767 768 770 771 772 773 774 775 776 778 779 780 781 782 783 784 785 786 787 788 789 790 791 792 793 793 794 794 795 795 796
699 702 704 707 709 711 713 715 718 720 722 724 726 728 730 731 733 735 737 739 741 742 744 746 747 749 751 752 754 755 757 758 760 761 763 764 765 766 767 768 770 771 772 773 774 776 776 778 779 781 781 782 783 784 785 786 787 788 789 790 791 792 793 793 794 794 795 796 796
699 701 704 706 709 711 713 716 718 720 721 723 725 727 729 731 733 735 736 738 740 742 744 746 747 749 751 752 753 755 756 758 760 761 763 764 765 766 767 769 770 771 772 774 775 776 776 778 779 781 781 782 783 784 786 786 787 788 789 790 791 792 792 793 794 795 796 796 796
699 701 703 706 708 711 713 715 717 719 721 723 725 727 729 731 732 734 736 738 740 742 744 745 747 749 750 752 753 754 756 757 759 761 762 764 765 766 767 769 770 771 773 774 775 776 777 778 779 781 782 782 783 785 786 786 787 788 789 790 791 792 792 793 795 796 796 797 797
698 700 703 705 707 710 712 715 716 719 721 723 725 726 728 730 732 734 736 738 740 741 743 745 746 748 750 751 753 754 756 757 759 760 761 763 765 766 768 769 771 772 773 774 775 776 777 779 780 781 781 782 783 784 786 786 788 789 790 791 791 792 793 794 795 796 797 797 798
696 699 701 704 707 709 712 714 716 718 720 722 724 726 728 730 732 734 736 737 739 741 743 744 746 748 749 751 752 754 756 757 759 760 761 763 765 766 768 769 771 772 773 775 776 777 778 779 780 781 782 782 783 784 785 786 788 789 790 791 792 792 793 795 796 796 797 798 799
695 698 700 703 706 709 711 713 716 718 720 722 724 726 728 730 732 734 735 737 739 741 742 744 746 747 749 751 753 754 756 757 758 760 761 763 765 766 768 769 771 772 774 775 776 777 778 780 781 781 782 783 784 785 785 786 788 789 790 791 792 793 794 796 796 797 798 798 799
694 696 699 702 705 708 711 713 715 717 719 721 723 726 728 730 731 733 735 736 738 740 742 744 746 747 749 751 753 754 756 757 758 760 762 763 765 767 768 770 771 773 774 775 776 778 779 780 781 782 782 783 784 785 786 787 788 789 791 792 793 794 795 796 797 798 798 799 800
693 695 698 701 704 707 710 712 714 716 719 721 723 726 727 730 731 733 734 736 738 740 741 743 745 747 749 751 752 754 755 756 758 760 761 763 765 767 769 770 772 773 775 776 777 778 779 780 781 782 783 783 784 785 786 787 788 790 791 793 794 795 796 797 797 798 799 800 800
692 695 697 700 703 706 709 711 714 716 718 721 723 725 727 729 731 732 734 736 738 739 741 743 745 747 749 751 752 753 755 756 758 760 762 764 766 767 769 771 772 774 775 776 777 778 780 781 781 782 783 784 785 786 787 788 789 791 792 794 795 796 796 797 798 799 800 800 801
691 694 697 700 702 705 708 711 713 716 718 720 722 725 727 729 731 732 734 736 737 739 741 743 745 747 749 751 752 753 755 757 759 761 762 764 766 767 769 771 773 774 776 776 778 779 780 781 781 782 783 784 785 786 787 789 790 792 793 794 796 796 797 798 799 799 800 801 801
691 694 696 699 702 705 707 710 713 715 717 720 722 724 726 729 731 733 735 736 737 739 741 742 744 746 748 750 752 754 756 757 759 761 763 764 766 768 770 771 773 775 776 777 778 779 780 781 782 783 784 785 786 787 788 790 791 792 794 795 796 797 797 798 799 800 801 801 802
691 693 696 698 701 704 707 710 712 715 717 720 722 724 726 728 731 733 735 736 737 739 741 742 744 746 748 749 751 754 756 758 760 761 763 765 766 768 770 772 774 776 777 778 779 780 781 781 782 783 784 786 786 788 789 790 791 793 794 795 796 797 798 799 800 801 801 802 803
690 692 695 698 701 703 706 709 712 715 717 720 722 724 726 728 730 732 734 736 738 740 741 743 745 746 748 750 752 754 756 758 760 762 763 765 766 768 770 772 775 776 778 779 780 780 781 782 783 784 785 786 787 789 790 791 792 793 794 796 797 798 799 800 801 802 802 803 804
689 691 694 697 700 703 706 709 711 714 717 719 721 724 726 728 731 732 734 736 738 740 742 743 745 746 748 751 753 755 756 758 760 762 764 765 767 768 771 773 776 777 779 780 780 781 782 782 784 785 786 786 788 789 791 791 793 794 795 796 798 799 800 801 802 803 804 805 806
688 690 693 696 700 702 705 708 711 714 716 719 721 724 726 728 731 733 734 736 738 740 742 743 745 747 749 751 753 755 757 758 760 762 764 766 767 769 771 774 776 778 780 780 781 781 782 783 784 785 786 787 788 790 791 792 793 795 796 797 799 800 801 802 803 804 805 806 807
687 690 692 696 699 702 705 708 710 713 716 718 721 723 725 728 730 733 735 736 738 740 742 744 745 747 750 752 754 756 758 759 760 762 764 766 768 770 772 775 777 779 780 781 781 782 783 784 785 786 786 787 789 790 791 792 794 795 796 798 800 801 802 803 804 805 806 807 808
687 689 691 694 698 701 704 707 710 712 715 718 720 723 725 728 730 733 735 736 738 740 741 744 746 748 751 753 755 757 759 760 761 763 765 767 769 771 772 775 777 780 781 781 782 783 784 785 786 787 787 788 789 790 791 792 794 796 797 799 800 801 803 804 805 806 807 808 809
686 689 691 694 697 700 703 706 709 712 714 717 720 722 725 728 731 733 736 737 739 740 742 744 747 749 751 753 755 757 760 761 763 764 766 768 770 772 773 775 777 780 781 782 783 784 785 786 787 787 788 789 790 791 791 793 795 796 798 799 801 802 804 805 806 807 808 809 810
686 689 691 694 697 700 703 706 709 712 714 716 719 722 725 727 730 733 736 738 740 741 743 745 748 750 752 754 756 758 760 762 765 766 768 769 771 773 775 776 778 780 782 783 784 785 786 787 788 788 789 790 790 791 792 793 795 797 798 800 801 803 804 806 807 808 809 810 810
Wind_Speed
30 29 28 28 28 27 27 26 26 25 25 24 24 24 24 24 24 24 24 24 24 24 23 23 23 23 24 24 25 25 25 24 23 22 22 23 23 23 23 23 23 23 24 24 25 25 26 27 26 26 26 26 26 26 26 26 27 27 28 28 29 28 27 27 27 27 27 26 26
31 30 29 28 28 27 26 26 26 25 25 25 25 25 25 24 24 24 24 24 24 24 23 23 23 23 24 25 25 26 26 25 24 23 22 22 23 23 23 23 23 23 24 25 25 25 25 26 26 26 26 26 26 26 26 27 27 27 28 28 28 28 26 25 25 26 25 24 24
32 31 30 29 28 28 27 26 26 26 26 26 25 25 25 25 25 24 24 25 24 24 23 23 23 24 25 25 25 26 26 26 25 24 23 22 22 22 22 22 23 23 24 24 24 24 24 25 26 26 26 26 26 26 27 27 28 28 27 27 27 26 25 24 24 24 23 22 22
33 32 31 30 30 30 29 28 27 27 27 26 25 25 25 25 24 24 24 24 24 24 24 24 24 24 25 25 25 25 25 25 25 24 23 22 22 22 22 22 22 23 24 24 25 24 24 24 25 26 26 26 26 27 28 28 28 28 27 26 26 25 24 24 24 24 23 22 21
34 33 32 32 32 31 30 28 27 27 27 26 25 25 25 25 24 24 24 24 24 24 24 24 24 24 25 25 25 25 25 25 25 24 23 22 22 22 22 22 22 23 24 25 25 25 25 25 26 27 27 27 27 28 28 28 28 27 26 25 24 24 24 24 24 24 23 22 21
35 34 34 32 32 31 30 28 27 27 26 26 25 25 25 25 24 24 24 24 25 25 24 24 24 24 24 25 25 25 25 25 25 25 24 22 22 22 22 22 22 23 24 24 25 25 26 26 27 28 28 28 27 27 27 27 26 25 23 22 22 23 23 23 23 23 22 21 19
35 34 34 33 32 31 30 29 27 27 26 26 26 27 26 25 25 25 25 25 24 24 24 24 24 24 24 25 25 25 24 24 25 25 24 23 22 21 22 22 22 23 23 24 24 25 26 26 27 27 27 27 26 26 26 25 24 22 21 21 21 22 22 22 21 21 20 18 17
34 34 34 33 32 31 30 29 28 27 27 26 27 28 27 26 25 25 25 25 24 25 25 24 24 24 24 24 25 25 24 24 24 24 24 23 22 21 21 22 22 22 23 23 23 24 25 27 27 26 26 26 26 26 25 24 22 20 20 20 21 21 20 19 18 17 15 14 12
32 33 33 33 32 31 30 29 28 28 27 27 28 28 27 26 26 25 25 25 25 25 25 24 24 24 24 24 24 24 24 24 24 24 24 23 22 21 21 22 22 22 22 22 23 24 25 26 26 25 25 25 26 26 25 23 20 19 19 20 20 19 17 15 13 12 10 9 8
31 32 33 32 32 31 30 29 29 28 28 27 27 27 27 26 26 26 25 25 24 24 24 24 24 24 24 24 24 24 24 24 24 24 24 23 22 21 21 22 22 22 22 22 23 24 25 25 25 24 24 25 26 25 23 21 19 19 19 19 18 15 13 11 9 8 8 8 8
32 32 32 32 32 31 30 29 29 28 28 27 27 27 27 27 27 26 25 24 24 24 24 24 24 24 24 24 24 23 23 23 23 23 23 23 22 22 22 22 22 22 22 23 24 25 25 25 24 24 24 24 24 22 20 19 19 18 18 17 15 13 10 9 9 9 8 8 7
32 32 32 32 31 30 30 29 28 28 28 27 27 27 27 27 27 26 25 24 24 24 24 24 24 24 24 24 23 23 22 22 23 23 23 23 22 22 22 22 22 22 22 23 24 24 24 23 23 24 23 22 21 19 18 18 19 18 16 14 13 11 11 11 10 8 7 5 4
32 31 31 31 30 30 30 29 29 28 28 27 27 27 27 27 27 26 25 25 25 24 24 24 24 24 24 23 23 22 22 22 22 23 23 22 22 22 22 21 21 21 22 22 23 22 22 22 22 22 22 21 19 18 18 19 18 17 15 13 12 12 11 10 9 7 6 5 4
31 31 30 30 30 30 30 29 29 28 27 27 27 27 27 27 27 26 26 25 25 25 24 24 23 23 23 23 22 22 21 21 22 22 22 22 22 22 22 21 21 21 21 21 20 20 20 20 20 21 21 20 19 18 18 18 18 16 14 12 12 12 11 9 8 7 6 5 5
31 30 30 30 30 30 30 29 28 27 27 27 27 26 26 26 26 26 26 25 25 25 24 24 23 23 23 22 21 21 20 21 21 22 22 22 22 22 21 21 20 20 20 19 19 18 19 19 20 20 20 20 19 19 18 17 15 13 12 12 12 11 10 10 8 7 6 6 5
31 30 30 30 30 30 30 29 27 26 26 27 27 26 26 25 26 26 26 26 25 24 24 23 23 23 22 21 20 20 20 20 21 22 22 22 22 21 21 20 20 19 19 18 18 19 19 19 19 19 19 19 19 18 16 14 13 12 12 12 11 11 11 10 9 8 6 5 5
31 31 30 31 31 31 30 30 28 26 26 27 26 26 26 25 25 26 26 26 25 24 23 23 23 22 22 21 20 20 20 21 21 22 22 22 21 21 20 19 19 19 19 19 19 19 19 19 19 19 19 18 18 16 14 13 13 13 13 13 12 11 10 9 8 7 6 5 5
32 31 31 31 32 32 31 30 28 27 27 27 26 26 26 26 26 26 26 26 25 24 24 23 22 22 22 21 20 20 20 21 21 22 22 21 21 20 20 19 19 19 19 20 20 20 19 19 19 18 18 17 16 15 14 14 14 14 14 13 12 11 10 8 7 6 5 5 5
32 32 32 32 32 32 31 30 28 28 27 27 26 26 26 26 26 26 26 25 25 25 24 23 22 22 22 21 21 21 21 21 21 21 21 21 20 20 19 19 19 20 20 21 21 20 20 19 18 17 16 16 15 15 15 15 15 15 14 13 11 10 8 7 6 6 5 5 4
32 32 32 32 32 32 31 30 29 28 28 27 26 26 26 26 27 27 26 26 25 24 24 24 23 22 22 22 21 21 21 21 20 20 20 20 20 20 19 20 20 21 21 21 21 20 19 18 17 16 16 16 16 15 15 15 15 15 14 13 11 10 8 6 6 5 5 4 4
33 33 32 32 31 31 31 30 29 28 27 27 27 27 27 26 27 27 27 26 25 24 24 24 24 23 23 23 22 22 21 21 20 20 20 20 20 20 20 20 20 21 21 20 20 19 18 17 16 16 16 16 16 16 16 16 16 16 14 13 11 10 8 7 6 5 5 5 4
32 32 32 30 30 30 30 30 29 28 27 27 27 27 27 27 27 27 26 26 25 25 25 24 24 24 24 24 23 22 21 21 20 20 20 20 21 21 20 20 21 21 20 20 19 18 17 17 16 16 16 16 16 16 17 17 17 16 15 13 12 10 8 7 7 6 5 5 6
31 30 30 29 28 28 29 29 28 27 27 27 27 27 27 27 27 26 26 26 26 25 25 25 24 24 24 24 23 23 22 21 21 20 20 20 21 21 21 21 21 21 20 20 19 18 18 17 17 17 17 17 17 17 17 17 16 15 14 13 11 10 9 8 7 7 7 7 8
29 29 29 28 28 28 28 28 27 27 27 27 27 28 28 27 27 27 26 26 26 26 26 25 25 24 24 24 24 23 23 22 22 21 21 21 21 21 21 21 21 20 20 19 18 18 17 17 18 17 17 17 17 16 16 15 14 14 13 12 11 9 8 8 7 8 9 9 10
29 28 28 28 28 28 27 27 27 27 27 27 28 28 28 27 27 28 28 27 27 26 26 25 25 25 25 25 24 23 23 23 23 23 22 21 21 22 22 22 21 21 20 18 17 16 16 16 17 17 17 17 17 16 15 14 13 12 11 10 9 9 9 10 10 11 11 11 11
29 28 28 28 28 28 28 28 28 28 28 28 28 28 28 28 28 29 29 28 28 27 27 27 27 27 26 25 24 24 23 23 23 23 23 23 23 23 23 22 22 21 20 18 17 16 15 15 15 15 15 15 16 16 15 14 12 11 10 9 9 10 12 14 14 14 13 13 12
29 29 29 29 29 28 28 28 28 28 28 29 29 29 29 29 29 29 29 29 28 28 28 28 28 27 26 25 25 24 24 24 23 23 24 24 24 24 24 23 22 21 20 18 17 16 16 15 14 13 12 13 13 14 14 14 12 12 11 12 12 14 16 17 16 16 14 13 12
30 30 30 30 29 29 29 28 28 29 29 29 30 30 30 30 30 30 30 29 29 29 29 29 28 27 26 25 25 25 25 25 24 24 24 24 25 25 24 23 22 21 20 19 18 17 16 14 12 11 10 11 12 13 13 14 14 14 15 16 16 17 18 18 17 16 15 14 12
31 31 31 31 30 30 29 29 29 30 30 30 30 30 30 30 30 30 31 30 30 30 29 28 28 27 26 26 26 26 26 25 25 25 25 25 25 25 24 24 23 22 21 20 19 17 15 13 12 11 11 12 12 13 14 15 16 17 18 18 18 19 18 18 16 15 14 13 12
31 32 32 32 31 30 30 30 30 31 31 31 31 31 31 31 31 31 31 31 31 30 30 29 28 27 27 27 27 27 26 26 25 26 26 26 26 26 25 25 24 23 21 20 18 17 15 14 14 14 14 14 13 14 16 17 19 20 20 20 19 19 18 17 15 14 13 12 12
32 32 32 32 31 31 31 31 31 31 31 31 32 32 32 31 31 31 32 32 31 31 30 30 29 28 28 28 28 28 27 27 26 26 27 27 27 27 27 26 25 23 21 19 18 17 16 16 16 16 16 15 15 16 18 20 21 21 21 20 19 18 16 15 14 13 12 12 12
32 33 33 33 32 32 32 32 32 32 33 33 32 32 32 32 32 32 32 32 32 31 31 30 30 30 29 29 28 28 27 27 27 27 28 28 29 28 28 26 25 23 20 18 18 17 18 18 18 18 17 16 17 19 21 22 22 21 20 19 17 16 15 14 13 12 12 11 12
33 33 33 33 33 33 32 32 33 33 33 33 32 32 32 32 31 31 31 32 32 32 31 31 31 31 30 29 28 28 28 28 28 28 29 29 29 29 28 26 24 22 19 18 18 18 19 19 18 18 17 17 19 21 23 23 22 20 19 18 17 16 15 14 14 13 13 12 12
34 34 34 34 33 33 33 33 33 33 33 32 32 32 32 32 32 31 31 31 31 32 32 31 31 31 31 30 29 29 29 29 29 30 30 30 30 29 28 26 23 21 19 19 19 19 19 19 18 18 18 19 22 23 24 23 21 20 19 19 18 17 17 16 15 14 13 12 12
35 34 34 34 34 34 33 33 33 33 32 32 32 32 32 32 32 31 31 31 31 31 30 31 31 31 31 30 30 31 31 31 31 31 31 30 29 29 27 26 23 21 20 20 20 19 19 18 18 18 20 22 24 24 23 23 22 21 21 21 20 19 18 17 16 14 13 12 11
35 35 35 34 34 34 33 33 33 33 32 32 32 32 32 32 32 32 32 31 31 30 30 30 31 31 31 31 31 31 32 33 33 32 31 30 29 28 27 26 24 22 21 20 20 19 19 18 19 20 22 24 25 25 24 24 24 23 23 23 22 21 19 18 16 15 14 13 12
36 36 36 35 34 34 34 33 33 32 32 32 32 32 32 31 31 31 32 32 31 31 30 30 31 31 31 31 31 32 33 33 33 32 31 29 28 28 28 27 25 23 21 21 20 20 19 19 20 22 24 26 26 26 26 26 26 26 25 25 24 22 20 19 17 16 14 13 12
36 37 37 36 35 34 34 34 33 33 32 32 33 33 33 32 32 31 31 32 32 31 31 31 31 31 32 32 33 33 33 32 32 32 30 29 28 28 29 28 26 24 22 21 20 20 20 21 22 23 25 27 27 27 28 28 28 27 27 26 24 22 20 18 17 15 14 13 12
37 37 38 37 36 35 35 34 34 33 33 33 33 33 33 33 31 31 31 31 32 32 32 32 32 32 33 33 33 33 32 31 30 30 30 29 28 28 29 29 27 25 23 21 21 21 22 23 24 25 26 27 28 28 29 29 29 29 28 26 25 23 20 18 17 16 15 14 13
37 38 38 37 37 36 35 34 34 34 35 35 34 34 33 33 31 31 30 31 32 33 33 33 33 33 34 34 33 32 31 30 29 29 30 30 29 28 28 29 27 25 23 22 22 22 23 24 25 26 26 27 28 29 29 29 30 29 28 26 25 23 22 20 18 18 17 16 15
37 37 37 37 36 36 35 35 34 35 35 36 35 34 34 33 32 31 31 31 32 33 34 34 34 34 34 33 33 32 31 30 30 30 30 30 29 29 28 28 27 25 24 23 23 23 24 25 25 26 26 27 28 28 29 29 29 29 28 26 25 24 23 22 20 19 18 17 16
Wind_Direction
205 205 205 205 205 206 206 207 207 207 206 205 204 203 203 201 202 203 203 203 203 204 204 205 205 206 206 207 209 209 209 209 209 209 210 210 211 212 212 212 210 209 208 208 211 213 215 216 216 217 219 222 226 228 231 233 235 236 238 241 243 245 247 250 253 254 254 253 253
206 206 206 205 206 206 206 207 207 207 207 206 205 204 204 203 203 203 204 204 204 205 205 205 205 206 207 209 210 210 210 209 210 210 211 211 211 212 212 212 210 209 208 209 211 213 215 216 216 217 219 223 227 230 232 235 235 236 237 239 242 243 245 247 252 256 257 257 256
206 206 206 206 206 206 206 206 207 207 207 206 206 205 205 205 205 204 204 204 205 205 205 205 206 207 208 210 211 212 211 211 210 210 210 211 211 212 212 212 211 210 210 211 213 215 218 219 219 219 221 225 228 232 234 236 236 236 236 238 240 242 243 247 252 255 257 258 257
207 206 206 206 206 206 206 206 206 206 206 206 205 205 206 206 206 205 205 205 205 205 205 206 207 208 210 211 212 213 212 212 210 210 210 210 210 211 212 213 212 210 210 211 214 217 220 222 222 222 223 226 229 233 235 236 235 234 234 236 239 241 244 249 252 255 256 257 257
207 207 207 207 207 207 207 207 206 206 205 205 204 204 205 206 206 205 205 205 205 206 206 207 208 210 211 213 213 213 213 212 211 210 210 210 210 210 211 212 212 211 210 210 212 216 218 219 220 220 222 225 229 232 234 234 232 231 232 235 239 243 247 249 252 254 256 257 258
207 208 208 208 208 208 208 208 207 206 204 204 203 204 204 204 204 204 203 204 205 207 207 208 209 211 212 214 214 214 213 211 210 209 209 209 210 210 210 211 212 211 210 209 210 212 213 214 215 217 219 222 227 231 232 232 230 230 233 237 241 245 246 248 251 254 256 256 257
207 208 208 209 208 208 208 208 207 205 204 204 204 204 204 203 203 203 203 205 205 206 206 208 209 211 212 213 213 213 212 211 209 209 208 208 209 209 210 211 211 212 212 211 210 210 211 212 213 214 216 220 224 227 229 229 229 231 235 238 241 243 244 245 249 253 254 254 254
208 208 208 208 208 208 207 206 205 204 204 204 204 205 205 203 202 203 204 204 204 205 205 207 208 211 212 213 213 212 211 209 208 207 207 208 208 209 210 210 211 213 215 215 213 212 212 214 214 215 217 220 223 225 227 228 229 232 235 236 238 239 241 243 247 250 250 249 245
207 208 208 208 208 207 206 206 205 204 204 204 204 206 206 204 203 203 203 203 204 205 206 206 208 211 213 214 213 212 211 208 207 206 206 207 208 209 209 209 210 212 215 217 217 216 216 216 216 217 219 221 223 224 225 227 229 230 231 231 232 235 238 241 242 241 236 227 213
205 206 206 207 207 206 205 205 205 205 205 205 205 206 205 204 204 203 203 203 204 204 205 206 208 210 212 214 214 212 210 208 206 204 204 206 207 208 209 208 209 211 213 216 217 216 215 215 216 217 219 221 222 223 224 226 226 225 225 226 227 229 230 228 219 206 193 187 183
204 204 205 205 205 204 204 203 204 205 205 205 205 204 204 203 203 203 203 203 202 202 204 206 208 209 211 213 213 211 209 207 205 203 203 205 207 208 209 209 210 212 214 215 214 212 211 211 212 214 217 220 221 222 223 223 221 219 218 220 222 219 209 192 178 170 168 170 172
204 203 203 203 203 202 201 202 202 204 204 205 204 203 202 202 202 202 202 201 201 202 205 207 209 210 211 212 212 210 208 206 204 202 202 203 206 207 209 211 213 215 217 217 214 210 208 208 210 212 215 218 221 221 220 218 215 213 212 211 210 199 181 166 161 158 157 156 151
203 202 201 201 200 200 200 200 202 203 203 203 202 201 200 200 201 200 200 200 201 202 204 206 209 211 211 211 210 208 206 204 203 201 201 202 204 206 208 210 214 217 219 218 215 211 208 209 211 213 215 217 217 217 215 212 210 208 204 197 186 173 162 154 148 143 136 127 113
201 200 199 199 198 198 199 199 201 201 201 201 200 198 197 197 198 198 198 200 201 202 203 205 207 209 210 209 208 206 204 202 201 200 199 200 202 204 207 210 214 217 218 217 214 211 209 210 211 213 213 212 211 209 208 207 206 203 195 181 167 156 148 138 129 120 111 103 96
199 198 197 197 196 197 198 198 198 199 199 198 197 196 195 194 195 196 197 199 200 201 202 202 204 206 207 207 206 204 202 200 198 197 197 199 201 204 207 210 214 216 215 213 210 209 209 208 208 208 209 207 205 203 201 199 196 189 178 165 155 144 133 122 114 106 99 94 94
197 197 196 195 195 195 196 197 197 196 196 195 195 194 193 191 192 194 195 197 199 199 199 200 200 201 202 203 203 201 199 197 195 195 196 197 200 203 206 210 213 213 210 206 204 203 203 203 203 204 204 203 199 195 189 183 174 163 154 147 139 130 120 111 105 99 94 92 93
195 195 194 194 194 194 195 195 195 194 193 192 191 190 190 190 189 191 193 196 196 195 195 196 197 196 196 197 197 197 194 193 193 194 196 198 200 203 206 209 210 209 205 201 199 197 196 197 198 200 199 196 190 181 171 161 152 145 140 134 126 117 110 103 97 93 90 89 86
194 194 193 193 193 194 194 193 192 191 191 191 189 187 187 188 187 189 191 194 194 193 191 192 193 193 193 191 191 192 191 191 191 194 197 200 202 203 204 204 204 203 201 198 195 193 192 192 194 193 190 185 175 165 157 150 144 138 133 126 117 110 102 96 89 85 81 80 77
193 193 193 193 193 193 192 191 190 188 189 191 189 186 185 186 187 187 188 190 192 191 189 187 188 189 189 188 187 188 190 191 192 194 197 200 201 201 199 197 197 197 196 194 193 191 190 190 188 184 178 171 162 155 150 145 139 134 128 121 113 106 99 91 82 76 74 74 73
192 192 192 192 192 191 189 188 187 187 188 189 187 185 184 185 186 186 186 187 188 188 187 185 184 184 185 185 185 185 187 190 192 194 196 197 196 194 192 191 192 192 192 190 189 187 185 183 179 174 168 163 157 151 147 142 138 132 127 121 115 111 104 95 84 76 75 77 78
192 192 192 192 190 188 186 185 186 187 188 187 185 183 182 183 184 185 185 185 184 184 184 184 183 182 182 182 182 183 185 188 190 192 192 191 189 188 188 189 189 189 188 185 182 179 175 171 167 163 161 158 155 151 147 142 138 133 128 124 121 119 114 105 93 84 81 81 82
192 192 192 190 187 185 184 183 185 186 185 184 183 181 181 181 182 183 183 181 180 180 181 182 183 182 181 180 180 180 181 183 185 186 186 184 184 184 186 188 187 184 181 177 172 167 163 159 158 158 157 154 151 149 146 142 138 133 130 127 125 122 114 104 95 89 86 86 85
190 189 188 187 185 183 182 184 184 183 182 181 180 179 178 178 179 179 178 176 176 177 179 181 181 181 179 178 178 178 177 177 178 179 180 179 178 180 182 183 181 177 172 167 163 158 154 152 152 153 152 149 146 144 142 139 136 133 130 127 123 117 109 99 94 93 96 98 94
187 186 185 184 183 182 181 181 180 179 178 177 176 175 175 175 174 174 173 173 174 175 176 176 176 175 174 175 176 177 176 175 173 173 173 174 174 174 175 174 171 167 163 160 158 155 152 150 150 148 146 143 139 137 136 135 133 130 127 124 120 115 109 105 104 106 107 105 101
183 182 181 180 179 178 178 177 176 175 175 174 172 171 171 170 170 170 169 170 171 171 170 169 169 169 170 171 173 175 176 175 173 171 169 168 168 168 167 164 161 159 156 155 154 153 151 150 148 145 141 137 133 131 129 128 126 124 122 119 117 116 116 116 117 115 112 107 104
180 179 178 177 175 174 174 173 172 172 171 169 168 167 167 166 167 167 166 166 166 166 166 165 165 166 167 169 170 171 172 173 172 170 168 165 163 161 159 157 155 153 152 152 152 150 148 146 145 141 137 133 131 130 128 125 124 121 118 116 118 121 121 121 118 115 111 106 103
176 174 173 173 171 170 170 170 168 167 166 165 164 163 163 164 164 163 162 162 161 162 162 162 163 164 166 167 167 166 166 167 167 167 166 163 159 156 154 153 151 150 150 151 150 147 143 140 137 136 134 133 134 133 130 126 124 121 118 117 119 122 122 120 116 111 106 103 101
170 169 168 168 167 167 166 165 164 162 162 161 161 161 161 161 160 160 159 158 158 159 159 159 161 162 162 162 163 163 164 163 163 162 161 159 157 155 153 151 149 148 148 149 146 143 138 134 133 134 135 137 136 134 131 128 125 122 120 121 122 123 121 117 113 108 104 102 101
166 165 164 163 163 162 162 161 160 159 159 159 159 159 159 158 158 158 157 157 156 156 155 156 157 158 158 158 159 161 161 160 159 158 156 154 153 152 151 148 145 144 145 145 142 138 135 134 135 137 138 137 134 131 129 128 126 124 124 124 124 123 119 114 110 106 105 104 102
162 160 159 159 158 158 157 157 158 157 157 157 157 157 157 157 157 156 156 155 155 155 155 155 155 155 155 156 157 157 156 155 156 155 154 152 150 148 146 143 141 140 141 140 139 137 137 137 138 137 136 133 131 129 129 128 127 127 127 126 125 122 117 112 109 108 108 107 104
159 157 156 156 155 155 155 156 156 156 156 156 156 156 156 156 155 155 155 155 155 155 156 156 155 155 155 156 156 154 153 152 152 153 152 150 146 143 141 139 137 137 137 138 138 139 139 139 138 136 133 131 129 129 128 128 128 128 127 126 124 120 116 113 113 112 112 110 107
156 155 154 153 153 153 154 154 154 155 155 155 156 156 155 155 155 155 155 155 154 154 155 155 155 154 154 154 153 152 151 150 149 149 149 147 143 140 137 135 134 134 136 138 139 140 140 138 136 134 132 130 129 129 129 129 128 128 127 125 123 121 120 119 119 118 115 111 106
154 153 152 152 151 152 152 152 153 154 155 155 155 155 154 154 153 153 154 154 154 155 155 155 155 153 152 151 150 148 147 147 146 147 146 144 141 137 134 132 131 133 136 139 140 140 139 136 134 132 131 130 130 130 130 129 129 127 126 124 123 122 123 123 123 120 116 111 105
152 152 151 150 150 150 151 152 153 154 154 153 154 153 153 152 151 151 152 153 154 155 156 156 155 154 153 152 150 147 145 145 145 144 143 142 139 136 132 130 131 134 138 140 140 139 137 134 133 132 131 131 130 129 129 129 127 126 124 123 122 122 123 123 122 120 116 112 106
152 151 150 150 150 150 151 152 153 153 153 152 152 151 151 151 150 150 151 152 152 152 152 153 153 152 151 151 150 148 145 143 143 142 141 140 138 134 131 130 132 136 140 141 140 138 136 134 134 134 133 132 130 129 128 127 125 123 122 121 120 120 121 121 120 118 114 109 103
152 151 150 149 150 151 151 151 152 152 151 150 150 149 149 149 150 151 151 151 150 148 147 147 148 147 146 145 146 146 145 144 142 141 140 139 137 133 131 131 133 138 141 141 140 138 136 136 137 137 135 133 131 130 128 126 123 121 120 119 119 119 119 118 116 112 108 104 100
153 152 151 150 150 151 152 152 151 151 150 149 148 147 147 147 148 149 151 151 148 145 144 144 144 143 143 143 143 144 145 145 143 140 139 139 137 134 132 133 136 140 142 142 141 139 139 139 141 141 139 136 133 131 128 125 122 121 120 119 118 118 118 116 113 109 105 100 96
154 153 152 151 151 152 152 152 151 150 149 148 147 147 147 147 147 148 150 151 148 144 142 141 141 141 142 142 141 141 142 143 142 141 139 138 138 137 136 136 138 141 144 144 142 141 142 143 144 144 142 139 135 132 128 125 123 121 120 118 117 117 116 113 110 105 100 95 91
156 155 154 153 153 153 153 153 152 150 149 147 146 146 147 147 147 148 149 150 148 145 142 139 139 139 140 140 139 137 138 139 140 140 140 139 140 140 140 139 139 142 145 145 144 144 145 146 146 145 144 141 137 133 130 127 124 122 120 119 117 115 112 109 105 101 96 92 88
157 156 155 154 154 154 153 152 151 150 148 146 145 145 145 145 145 146 147 147 146 144 142 139 138 138 138 138 136 134 133 134 136 138 139 140 141 142 142 141 141 143 145 147 147 147 148 148 147 146 145 142 138 135 132 129 126 123 121 119 117 114 111 108 105 103 101 98 94
158 157 156 154 154 153 152 150 149 147 146 145 144 144 145 145 144 143 143 142 142 141 140 138 137 136 136 135 134 132 131 131 133 136 138 140 141 142 142 142 142 143 146 148 149 149 149 149 149 147 145 142 139 136 134 130 127 123 121 120 118 117 115 114 112 110 108 106 102